Time,TemperatureF,DewpointF,PressureIn,WindDirection,WindDirectionDegrees,WindSpeedMPH,WindSpeedGustMPH,Humidity,HourlyPrecipIn,Conditions,Clouds,dailyrainin,SoftwareType,DateUTC
2013-05-13 00:03:00,78.9,42.1,29.83,South,188,13.8,13.8,27,0.00,OVC,,0.00,WeatherDisplay:10.37,2013-05-13 07:03:00,
2013-05-13 00:08:00,78.4,41.6,29.83,South,191,15.0,15.0,27,0.00,OVC,,0.00,WeatherDisplay:10.37,2013-05-13 07:08:00,
2013-05-13 00:13:00,77.9,41.2,29.84,SSW,196,12.7,12.7,27,0.00,OVC,,0.00,WeatherDisplay:10.37,2013-05-13 07:13:00,
2013-05-13 00:18:00,78.4,40.7,29.83,South,185,17.3,17.3,26,0.00,OVC,,0.00,WeatherDisplay:10.37,2013-05-13 07:18:00,
2013-05-13 00:23:00,78.8,40.0,29.83,South,186,12.7,12.7,25,0.00,OVC,,0.00,WeatherDisplay:10.37,2013-05-13 07:23:00,
2013-05-13 00:28:00,78.7,41.9,29.83,South,186,13.0,13.1,27,0.00,OVC,,0.00,WeatherDisplay:10.37,2013-05-13 07:28:00,
2013-05-13 00:33:00,78.5,40.7,29.83,SSW,194,11.5,11.5,26,0.00,OVC,,0.00,WeatherDisplay:10.37,2013-05-13 07:33:00,
2013-05-13 00:38:00,78.2,40.5,29.83,South,184,11.5,11.5,26,0.00,OVC,,0.00,WeatherDisplay:10.37,2013-05-13 07:38:00,
2013-05-13 00:43:00,78.0,40.3,29.83,South,181,10.0,14.0,26,0.00,CLR,,0.00,WeatherDisplay:10.37,2013-05-13 07:43:00,
2013-05-13 00:48:00,78.0,40.3,29.83,South,178,14.0,17.0,26,0.00,CLR,,0.00,WeatherDisplay:10.37,2013-05-13 07:48:00,
2013-05-13 00:53:00,78.2,43.3,29.83,South,185,17.3,17.3,29,0.00,OVC,,0.00,WeatherDisplay:10.37,2013-05-13 07:53:00,
2013-05-13 00:58:00,78.3,44.3,29.83,South,183,18.4,18.4,30,0.00,OVC,,0.00,WeatherDisplay:10.37,2013-05-13 07:58:00,
2013-05-13 01:03:00,78.2,44.2,29.83,South,188,13.8,13.8,30,0.00,OVC,,0.00,WeatherDisplay:10.37,2013-05-13 08:03:00,
2013-05-13 01:09:00,78.1,44.1,29.83,South,183,13.0,16.0,30,0.00,CLR,,0.00,WeatherDisplay:10.37,2013-05-13 08:09:00,
2013-05-13 01:13:00,77.7,43.8,29.83,South,180,13.0,16.0,30,0.00,CLR,,0.00,WeatherDisplay:10.37,2013-05-13 08:13:00,
2013-05-13 01:19:00,77.5,44.5,29.83,South,181,11.5,11.5,31,0.00,OVC,,0.00,WeatherDisplay:10.37,2013-05-13 08:19:00,
2013-05-13 01:24:00,76.9,44.0,29.83,South,177,11.5,11.5,31,0.00,CLR,,0.00,WeatherDisplay:10.37,2013-05-13 08:24:00,
2013-05-13 01:29:00,76.8,45.5,29.83,SSW,192,18.0,18.0,33,0.00,OVC,,0.00,WeatherDisplay:10.37,2013-05-13 08:29:00,
2013-05-13 01:34:00,77.6,46.2,29.83,South,171,18.4,18.4,33,0.00,OVC,,0.00,WeatherDisplay:10.37,2013-05-13 08:34:00,
2013-05-13 01:39:00,77.8,46.4,29.83,South,184,20.0,20.0,33,0.00,OVC,,0.00,WeatherDisplay:10.37,2013-05-13 08:39:00,
2013-05-13 01:45:00,77.7,46.3,29.83,SSW,194,16.1,16.1,33,0.00,OVC,,0.00,WeatherDisplay:10.37,2013-05-13 08:45:00,
2013-05-13 01:50:00,77.5,46.1,29.83,South,188,16.1,16.1,33,0.00,OVC,,0.00,WeatherDisplay:10.37,2013-05-13 08:50:00,
2013-05-13 01:55:00,77.2,46.7,29.83,SSW,194,15.0,15.0,34,0.00,OVC,,0.00,WeatherDisplay:10.37,2013-05-13 08:55:00,
2013-05-13 02:00:00,77.0,46.5,29.83,SSW,198,11.5,11.5,34,0.00,OVC,,0.00,WeatherDisplay:10.37,2013-05-13 09:00:00,
2013-05-13 02:05:00,76.5,46.8,29.83,SSW,201,11.5,11.5,35,0.00,OVC,,0.00,WeatherDisplay:10.37,2013-05-13 09:05:00,
2013-05-13 02:10:00,76.3,47.4,29.83,South,183,11.5,11.5,36,0.00,OVC,,0.00,WeatherDisplay:10.37,2013-05-13 09:10:00,
2013-05-13 02:16:00,76.6,47.6,29.83,SSW,201,16.1,16.1,36,0.00,OVC,,0.00,WeatherDisplay:10.37,2013-05-13 09:16:00,
2013-05-13 02:21:00,77.0,48.0,29.83,South,191,13.8,13.8,36,0.00,OVC,,0.00,WeatherDisplay:10.37,2013-05-13 09:21:00,
2013-05-13 02:26:00,76.2,47.3,29.83,South,178,10.4,10.4,36,0.00,OVC,,0.00,WeatherDisplay:10.37,2013-05-13 09:26:00,
2013-05-13 02:31:00,75.7,47.6,29.83,South,183,11.5,11.5,37,0.00,OVC,,0.00,WeatherDisplay:10.37,2013-05-13 09:31:00,
2013-05-13 02:36:00,75.9,47.8,29.83,South,189,13.0,13.0,37,0.00,OVC,,0.00,WeatherDisplay:10.37,2013-05-13 09:36:00,
2013-05-13 02:41:00,75.7,48.3,29.83,SSW,194,11.5,11.5,38,0.00,OVC,,0.00,WeatherDisplay:10.37,2013-05-13 09:41:00,
2013-05-13 02:46:00,75.4,48.0,29.83,SSW,196,16.1,16.1,38,0.00,OVC,,0.00,WeatherDisplay:10.37,2013-05-13 09:46:00,
2013-05-13 02:51:00,75.6,48.2,29.83,South,190,15.0,15.0,38,0.00,OVC,,0.00,WeatherDisplay:10.37,2013-05-13 09:51:00,
2013-05-13 02:57:00,75.5,48.1,29.83,South,176,13.8,13.8,38,0.00,OVC,,0.00,WeatherDisplay:10.37,2013-05-13 09:57:00,
2013-05-13 03:02:00,74.4,48.5,29.83,South,185,16.1,16.1,40,0.00,OVC,,0.00,WeatherDisplay:10.37,2013-05-13 10:02:00,
2013-05-13 03:07:00,74.4,47.8,29.83,SSW,193,10.4,10.4,39,0.00,OVC,,0.00,WeatherDisplay:10.37,2013-05-13 10:07:00,
2013-05-13 03:12:00,73.9,47.4,29.83,South,185,11.5,11.5,39,0.00,OVC,,0.00,WeatherDisplay:10.37,2013-05-13 10:12:00,
2013-05-13 03:17:00,74.4,47.8,29.83,SSW,194,11.5,11.5,39,0.00,OVC,,0.00,WeatherDisplay:10.37,2013-05-13 10:17:00,
2013-05-13 03:22:00,73.7,47.9,29.83,SSW,202,10.4,10.4,40,0.00,OVC,,0.00,WeatherDisplay:10.37,2013-05-13 10:22:00,
2013-05-13 03:27:00,73.6,47.1,29.83,SSW,194,11.5,11.5,39,0.00,OVC,,0.00,WeatherDisplay:10.37,2013-05-13 10:27:00,
2013-05-13 03:32:00,73.2,46.8,29.83,SSW,197,11.5,11.5,39,0.00,OVC,,0.00,WeatherDisplay:10.37,2013-05-13 10:32:00,
2013-05-13 03:37:00,73.0,46.6,29.83,SW,225,9.2,9.2,39,0.00,OVC,,0.00,WeatherDisplay:10.37,2013-05-13 10:37:00,
2013-05-13 03:43:00,72.2,46.5,29.83,SW,236,6.9,6.9,40,0.00,OVC,,0.00,WeatherDisplay:10.37,2013-05-13 10:43:00,
2013-05-13 03:48:00,71.9,46.9,29.83,West,275,7.0,7.0,41,0.00,OVC,,0.00,WeatherDisplay:10.37,2013-05-13 10:48:00,
2013-05-13 03:53:00,72.7,47.0,29.83,SW,217,8.1,8.1,40,0.00,OVC,,0.00,WeatherDisplay:10.37,2013-05-13 10:53:00,
2013-05-13 03:58:00,72.8,46.4,29.83,WSW,237,6.0,6.0,39,0.00,OVC,,0.00,WeatherDisplay:10.37,2013-05-13 10:58:00,
2013-05-13 04:03:00,72.7,46.3,29.83,WSW,248,9.2,9.2,39,0.00,OVC,,0.00,WeatherDisplay:10.37,2013-05-13 11:03:00,
2013-05-13 04:08:00,72.4,46.7,29.83,SW,217,10.0,10.0,40,0.00,OVC,,0.00,WeatherDisplay:10.37,2013-05-13 11:08:00,
2013-05-13 04:13:00,72.0,46.3,29.83,SW,219,6.0,6.0,40,0.00,OVC,,0.00,WeatherDisplay:10.37,2013-05-13 11:13:00,
2013-05-13 04:18:00,71.4,45.8,29.83,WSW,248,6.0,6.0,40,0.00,OVC,,0.00,WeatherDisplay:10.37,2013-05-13 11:18:00,
2013-05-13 04:23:00,71.3,46.4,29.83,WSW,245,8.1,8.1,41,0.00,OVC,,0.00,WeatherDisplay:10.37,2013-05-13 11:23:00,
2013-05-13 04:28:00,71.7,46.7,29.83,WSW,246,6.0,6.0,41,0.00,OVC,,0.00,WeatherDisplay:10.37,2013-05-13 11:28:00,
2013-05-13 04:33:00,71.2,46.3,29.83,WSW,238,7.0,7.0,41,0.00,OVC,,0.00,WeatherDisplay:10.37,2013-05-13 11:33:00,
2013-05-13 04:38:00,71.3,46.4,29.83,SW,235,7.0,7.0,41,0.00,OVC,,0.00,WeatherDisplay:10.37,2013-05-13 11:38:00,
2013-05-13 04:43:00,71.4,45.8,29.83,West,263,5.0,5.0,40,0.00,OVC,,0.00,WeatherDisplay:10.37,2013-05-13 11:43:00,
2013-05-13 04:48:00,70.8,45.9,29.83,West,262,3.5,3.5,41,0.00,OVC,,0.00,WeatherDisplay:10.37,2013-05-13 11:48:00,
2013-05-13 04:53:00,70.1,45.3,29.83,WSW,250,3.5,3.5,41,0.00,OVC,,0.00,WeatherDisplay:10.37,2013-05-13 11:53:00,
2013-05-13 04:58:00,70.6,45.7,29.83,SW,227,6.9,6.9,41,0.00,OVC,,0.00,WeatherDisplay:10.37,2013-05-13 11:58:00,
2013-05-13 05:03:00,71.2,45.6,29.83,WSW,248,5.8,5.8,40,0.00,OVC,,0.00,WeatherDisplay:10.37,2013-05-13 12:03:00,
2013-05-13 05:08:00,70.6,45.7,29.83,WSW,253,7.0,7.0,41,0.00,OVC,,0.00,WeatherDisplay:10.37,2013-05-13 12:08:00,
2013-05-13 05:13:00,70.4,45.6,29.83,WSW,258,5.8,5.8,41,0.00,OVC,,0.00,WeatherDisplay:10.37,2013-05-13 12:13:00,
2013-05-13 05:18:00,70.7,45.2,29.83,WSW,254,6.0,7.0,40,0.00,CLR,,0.00,WeatherDisplay:10.37,2013-05-13 12:18:00,
2013-05-13 05:23:00,70.4,45.6,29.83,WSW,249,6.0,7.0,41,0.00,CLR,,0.00,WeatherDisplay:10.37,2013-05-13 12:23:00,
2013-05-13 05:28:00,70.2,45.4,29.83,WSW,248,5.0,6.0,41,0.00,CLR,,0.00,WeatherDisplay:10.37,2013-05-13 12:28:00,
2013-05-13 05:33:00,69.8,45.0,29.83,WSW,243,3.0,6.0,41,0.00,CLR,,0.00,WeatherDisplay:10.37,2013-05-13 12:33:00,
2013-05-13 05:39:00,69.2,44.5,29.83,West,267,4.6,4.6,41,0.00,OVC,,0.00,WeatherDisplay:10.37,2013-05-13 12:39:00,
2013-05-13 05:44:00,68.6,44.6,29.84,West,269,3.0,3.0,42,0.00,OVC,,0.00,WeatherDisplay:10.37,2013-05-13 12:44:00,
2013-05-13 05:49:00,68.5,44.5,29.84,West,269,0.0,0.0,42,0.00,OVC,,0.00,WeatherDisplay:10.37,2013-05-13 12:49:00,
2013-05-13 05:54:00,68.3,44.3,29.84,West,269,1.0,1.0,42,0.00,OVC,,0.00,WeatherDisplay:10.37,2013-05-13 12:54:00,
2013-05-13 05:59:00,68.2,44.2,29.84,West,269,3.0,3.0,42,0.00,OVC,,0.00,WeatherDisplay:10.37,2013-05-13 12:59:00,
2013-05-13 06:04:00,68.0,44.0,29.84,West,269,2.0,2.0,42,0.00,OVC,,0.00,WeatherDisplay:10.37,2013-05-13 13:04:00,
2013-05-13 06:10:00,66.7,42.9,29.84,WSW,241,3.5,3.5,42,0.00,OVC,,0.00,WeatherDisplay:10.37,2013-05-13 13:10:00,
2013-05-13 06:15:00,67.0,43.8,29.84,SSW,213,4.0,4.0,43,0.00,OVC,,0.00,WeatherDisplay:10.37,2013-05-13 13:15:00,
2013-05-13 06:20:00,66.5,42.1,29.85,SSW,213,3.5,3.5,41,0.00,OVC,,0.00,WeatherDisplay:10.37,2013-05-13 13:20:00,
2013-05-13 06:25:00,66.1,42.9,29.84,SSW,213,2.3,2.3,43,0.00,OVC,,0.00,WeatherDisplay:10.37,2013-05-13 13:25:00,
2013-05-13 06:30:00,64.5,41.5,29.85,SSW,213,2.3,2.3,43,0.00,OVC,,0.00,WeatherDisplay:10.37,2013-05-13 13:30:00,
2013-05-13 06:35:00,63.3,40.4,29.85,SSW,213,1.0,0.0,43,0.00,OVC,,0.00,WeatherDisplay:10.37,2013-05-13 13:35:00,
2013-05-13 06:40:00,62.8,40.5,29.85,SSW,213,2.0,2.0,44,0.00,OVC,,0.00,WeatherDisplay:10.37,2013-05-13 13:40:00,
2013-05-13 06:45:00,62.7,41.6,29.85,SSW,213,1.1,1.1,46,0.00,CLR,,0.00,WeatherDisplay:10.37,2013-05-13 13:45:00,
2013-05-13 06:51:00,63.4,42.8,29.86,South,180,3.5,3.5,47,0.00,OVC,,0.00,WeatherDisplay:10.37,2013-05-13 13:51:00,
2013-05-13 06:56:00,64.3,43.1,29.86,South,180,3.5,3.5,46,0.00,OVC,,0.00,WeatherDisplay:10.37,2013-05-13 13:56:00,
2013-05-13 07:01:00,65.1,43.2,29.86,South,180,2.3,2.3,45,0.00,OVC,,0.00,WeatherDisplay:10.37,2013-05-13 14:01:00,
2013-05-13 07:06:00,65.9,43.4,29.86,South,180,2.3,2.3,44,0.00,OVC,,0.00,WeatherDisplay:10.37,2013-05-13 14:06:00,
2013-05-13 07:11:00,66.9,43.7,29.86,South,180,3.0,3.0,43,0.00,OVC,,0.00,WeatherDisplay:10.37,2013-05-13 14:11:00,
2013-05-13 07:16:00,67.8,44.5,29.86,South,180,2.3,2.3,43,0.00,OVC,,0.00,WeatherDisplay:10.37,2013-05-13 14:16:00,
2013-05-13 07:22:00,68.6,44.6,29.86,South,180,2.3,2.3,42,0.00,OVC,,0.00,WeatherDisplay:10.37,2013-05-13 14:22:00,
2013-05-13 07:27:00,69.2,45.1,29.86,South,180,3.5,3.5,42,0.00,OVC,,0.00,WeatherDisplay:10.37,2013-05-13 14:27:00,
2013-05-13 07:32:00,70.0,45.2,29.85,South,180,3.5,3.5,41,0.00,OVC,,0.00,WeatherDisplay:10.37,2013-05-13 14:32:00,
2013-05-13 07:37:00,70.8,45.3,29.85,South,180,1.1,0.0,40,0.00,OVC,,0.00,WeatherDisplay:10.37,2013-05-13 14:37:00,
2013-05-13 07:42:00,71.5,45.2,29.85,South,180,1.1,1.1,39,0.00,OVC,,0.00,WeatherDisplay:10.37,2013-05-13 14:42:00,
2013-05-13 07:47:00,72.6,45.5,29.85,WSW,246,3.0,3.0,38,0.00,OVC,,0.00,WeatherDisplay:10.37,2013-05-13 14:47:00,
2013-05-13 07:52:00,73.8,45.2,29.85,SW,219,3.5,3.5,36,0.00,OVC,,0.00,WeatherDisplay:10.37,2013-05-13 14:52:00,
2013-05-13 07:57:00,74.7,45.2,29.86,West,259,2.3,2.3,35,0.00,CLR,,0.00,WeatherDisplay:10.37,2013-05-13 14:57:00,
2013-05-13 08:02:00,75.4,45.1,29.86,West,259,2.3,2.3,34,0.00,OVC,,0.00,WeatherDisplay:10.37,2013-05-13 15:02:00,
2013-05-13 08:08:00,76.2,45.0,29.85,SW,232,4.0,4.0,33,0.00,OVC,,0.00,WeatherDisplay:10.37,2013-05-13 15:08:00,
2013-05-13 08:13:00,77.0,44.9,29.86,SW,232,3.5,3.5,32,0.00,OVC,,0.00,WeatherDisplay:10.37,2013-05-13 15:13:00,
2013-05-13 08:18:00,77.9,44.8,29.85,SSW,207,3.5,3.5,31,0.00,OVC,,0.00,WeatherDisplay:10.37,2013-05-13 15:18:00,
2013-05-13 08:23:00,78.4,44.4,29.86,WSW,249,2.3,0.0,30,0.00,OVC,,0.00,WeatherDisplay:10.37,2013-05-13 15:23:00,
2013-05-13 08:28:00,79.2,44.2,29.86,WSW,250,3.5,3.5,29,0.00,OVC,,0.00,WeatherDisplay:10.37,2013-05-13 15:28:00,
2013-05-13 08:33:00,80.0,44.0,29.86,South,189,3.5,3.5,28,0.00,OVC,,0.00,WeatherDisplay:10.37,2013-05-13 15:33:00,
2013-05-13 08:38:00,81.0,42.9,29.85,SSW,202,4.6,4.6,26,0.00,OVC,,0.00,WeatherDisplay:10.37,2013-05-13 15:38:00,
2013-05-13 08:43:00,81.8,43.6,29.85,SSW,207,4.6,4.6,26,0.00,OVC,,0.00,WeatherDisplay:10.37,2013-05-13 15:43:00,
2013-05-13 08:48:00,82.4,42.0,29.85,SSW,198,3.5,3.5,24,0.00,OVC,,0.00,WeatherDisplay:10.37,2013-05-13 15:48:00,
2013-05-13 08:53:00,83.0,42.5,29.85,SW,217,3.5,3.5,24,0.00,OVC,,0.00,WeatherDisplay:10.37,2013-05-13 15:53:00,
2013-05-13 08:58:00,83.6,41.9,29.85,South,191,3.0,6.0,23,0.00,CLR,,0.00,WeatherDisplay:10.37,2013-05-13 15:58:00,
2013-05-13 09:03:00,84.3,42.5,29.85,SSE,168,3.0,6.0,23,0.00,CLR,,0.00,WeatherDisplay:10.37,2013-05-13 16:03:00,
2013-05-13 09:08:00,84.9,41.8,29.85,SE,125,2.0,5.0,22,0.00,CLR,,0.00,WeatherDisplay:10.37,2013-05-13 16:08:00,
2013-05-13 09:13:00,85.6,41.2,29.85,ESE,112,1.0,6.0,21,0.00,CLR,,0.00,WeatherDisplay:10.37,2013-05-13 16:13:00,
2013-05-13 09:18:00,86.0,41.5,29.85,SE,126,0.0,3.0,21,0.00,CLR,,0.00,WeatherDisplay:10.37,2013-05-13 16:18:00,
2013-05-13 09:23:00,86.8,40.9,29.85,SE,136,5.0,7.0,20,0.00,CLR,,0.00,WeatherDisplay:10.37,2013-05-13 16:23:00,
2013-05-13 09:28:00,86.6,40.8,29.85,SE,137,5.0,9.0,20,0.00,CLR,,0.00,WeatherDisplay:10.37,2013-05-13 16:28:00,
2013-05-13 09:34:00,86.8,40.9,29.85,SE,135,3.0,7.0,20,0.00,CLR,,0.00,WeatherDisplay:10.37,2013-05-13 16:34:00,
2013-05-13 09:39:00,87.9,41.8,29.85,SE,127,1.1,0.0,20,0.00,OVC,,0.00,WeatherDisplay:10.37,2013-05-13 16:39:00,
2013-05-13 09:44:00,89.6,40.5,29.85,ESE,111,6.9,6.9,18,0.00,OVC,,0.00,WeatherDisplay:10.37,2013-05-13 16:44:00,
2013-05-13 09:49:00,89.1,40.1,29.85,SE,142,4.6,4.6,18,0.00,OVC,,0.00,WeatherDisplay:10.37,2013-05-13 16:49:00,
2013-05-13 09:54:00,88.8,38.4,29.85,South,180,4.0,4.0,17,0.00,OVC,,0.00,WeatherDisplay:10.37,2013-05-13 16:54:00,
2013-05-13 09:59:00,88.7,38.3,29.85,SSE,161,4.6,4.6,17,0.00,OVC,,0.00,WeatherDisplay:10.37,2013-05-13 16:59:00,
2013-05-13 10:05:00,89.1,40.1,29.85,South,176,5.0,5.0,18,0.00,OVC,,0.00,WeatherDisplay:10.37,2013-05-13 17:05:00,
2013-05-13 10:10:00,89.5,38.9,29.85,South,186,7.0,7.0,17,0.00,OVC,,0.00,WeatherDisplay:10.37,2013-05-13 17:10:00,
2013-05-13 10:15:00,90.0,37.8,29.85,SW,227,3.5,3.5,16,0.00,OVC,,0.00,WeatherDisplay:10.37,2013-05-13 17:15:00,
2013-05-13 10:20:00,90.9,38.5,29.85,South,185,3.0,3.0,16,0.00,OVC,,0.00,WeatherDisplay:10.37,2013-05-13 17:20:00,
2013-05-13 10:25:00,90.5,38.2,29.85,SSW,199,3.5,3.5,16,0.00,OVC,,0.00,WeatherDisplay:10.37,2013-05-13 17:25:00,
2013-05-13 10:30:00,90.7,38.3,29.85,SSE,165,6.9,6.9,16,0.00,OVC,,0.00,WeatherDisplay:10.37,2013-05-13 17:30:00,
2013-05-13 10:35:00,91.1,38.7,29.85,East,101,8.1,8.1,16,0.00,OVC,,0.00,WeatherDisplay:10.37,2013-05-13 17:35:00,
2013-05-13 10:40:00,91.0,36.9,29.84,SE,143,10.4,10.4,15,0.00,OVC,,0.00,WeatherDisplay:10.37,2013-05-13 17:40:00,
2013-05-13 10:45:00,91.0,36.9,29.84,East,96,1.1,1.1,15,0.00,OVC,,0.00,WeatherDisplay:10.37,2013-05-13 17:45:00,
2013-05-13 10:51:00,91.9,35.9,29.84,NE,49,5.8,5.8,14,0.00,OVC,,0.00,WeatherDisplay:10.37,2013-05-13 17:51:00,
2013-05-13 10:56:00,93.2,36.9,29.84,WNW,301,8.0,8.0,14,0.00,OVC,,0.00,WeatherDisplay:10.37,2013-05-13 17:56:00,
2013-05-13 11:01:00,93.1,35.0,29.84,SSW,210,9.2,9.2,13,0.00,OVC,,0.00,WeatherDisplay:10.37,2013-05-13 18:01:00,
2013-05-13 11:06:00,92.7,34.7,29.84,South,175,6.0,6.0,13,0.00,OVC,,0.00,WeatherDisplay:10.37,2013-05-13 18:06:00,
2013-05-13 11:12:00,92.7,34.7,29.84,SSE,155,6.9,6.9,13,0.00,OVC,,0.00,WeatherDisplay:10.37,2013-05-13 18:12:00,
2013-05-13 11:17:00,92.3,34.3,29.84,SSW,213,5.8,5.8,13,0.00,OVC,,0.00,WeatherDisplay:10.37,2013-05-13 18:17:00,
2013-05-13 11:22:00,93.6,35.4,29.84,NE,40,2.3,2.3,13,0.00,OVC,,0.00,WeatherDisplay:10.37,2013-05-13 18:22:00,
2013-05-13 11:27:00,95.0,36.4,29.84,ENE,69,4.0,4.0,13,0.00,OVC,,0.00,WeatherDisplay:10.37,2013-05-13 18:27:00,
2013-05-13 11:32:00,94.2,33.8,29.84,ESE,111,3.5,3.5,12,0.00,OVC,,0.00,WeatherDisplay:10.37,2013-05-13 18:32:00,
2013-05-13 11:37:00,94.9,34.3,29.83,ENE,78,8.1,8.1,12,0.00,OVC,,0.00,WeatherDisplay:10.37,2013-05-13 18:37:00,
2013-05-13 11:42:00,96.2,35.4,29.83,West,275,5.0,5.0,12,0.00,OVC,,0.00,WeatherDisplay:10.37,2013-05-13 18:42:00,
2013-05-13 11:48:00,95.8,35.0,29.83,NW,304,4.0,4.0,12,0.00,OVC,,0.00,WeatherDisplay:10.37,2013-05-13 18:48:00,
2013-05-13 11:53:00,96.0,33.0,29.83,ENE,65,3.5,3.5,11,0.00,OVC,,0.00,WeatherDisplay:10.37,2013-05-13 18:53:00,
2013-05-13 11:58:00,95.5,32.6,29.83,East,82,7.0,7.0,11,0.00,OVC,,0.00,WeatherDisplay:10.37,2013-05-13 18:58:00,
2013-05-13 12:03:00,96.0,33.0,29.83,South,174,10.4,10.4,11,0.00,OVC,,0.00,WeatherDisplay:10.37,2013-05-13 19:03:00,
2013-05-13 12:08:00,95.9,30.6,29.82,SSE,156,26.5,26.5,10,0.00,OVC,,0.00,WeatherDisplay:10.37,2013-05-13 19:08:00,
2013-05-13 12:13:00,94.6,29.6,29.83,South,185,18.4,18.4,10,0.00,OVC,,0.00,WeatherDisplay:10.37,2013-05-13 19:13:00,
2013-05-13 12:18:00,94.7,29.7,29.82,SE,125,8.1,8.1,10,0.00,CLR,,0.00,WeatherDisplay:10.37,2013-05-13 19:18:00,
2013-05-13 12:23:00,94.2,31.6,29.82,SE,142,10.4,10.4,11,0.00,OVC,,0.00,WeatherDisplay:10.37,2013-05-13 19:23:00,
2013-05-13 12:28:00,94.9,27.2,29.82,SE,139,21.0,21.0,9,0.00,OVC,,0.00,WeatherDisplay:10.37,2013-05-13 19:28:00,
2013-05-13 12:33:00,95.0,27.3,29.81,ESE,121,27.6,27.6,9,0.00,OVC,,0.00,WeatherDisplay:10.37,2013-05-13 19:33:00,
2013-05-13 12:38:00,95.2,27.5,29.81,SE,140,21.0,21.0,9,0.00,OVC,,0.00,WeatherDisplay:10.37,2013-05-13 19:38:00,
2013-05-13 12:43:00,95.6,27.8,29.81,SE,137,17.0,25.0,9,0.00,CLR,,0.00,WeatherDisplay:10.37,2013-05-13 19:43:00,
2013-05-13 12:49:00,96.2,28.2,29.81,SE,144,29.0,29.0,9,0.00,OVC,,0.00,WeatherDisplay:10.37,2013-05-13 19:49:00,
2013-05-13 12:54:00,95.3,30.1,29.81,SSE,152,23.0,23.0,10,0.00,OVC,,0.00,WeatherDisplay:10.37,2013-05-13 19:54:00,
2013-05-13 12:59:00,96.0,28.1,29.81,SSE,153,32.2,32.2,9,0.00,OVC,,0.00,WeatherDisplay:10.37,2013-05-13 19:59:00,
2013-05-13 13:04:00,94.7,27.1,29.81,SSE,148,22.0,22.0,9,0.00,CLR,,0.00,WeatherDisplay:10.37,2013-05-13 20:04:00,
2013-05-13 13:09:00,95.5,27.7,29.80,SE,142,28.8,28.8,9,0.00,CLR,,0.00,WeatherDisplay:10.37,2013-05-13 20:09:00,
2013-05-13 13:14:00,95.7,27.8,29.80,East,92,19.6,19.6,9,0.00,CLR,,0.00,WeatherDisplay:10.37,2013-05-13 20:14:00,
2013-05-13 13:19:00,95.6,27.8,29.80,South,180,21.9,21.9,9,0.00,CLR,,0.00,WeatherDisplay:10.37,2013-05-13 20:19:00,
2013-05-13 13:25:00,95.6,30.3,29.80,South,188,25.3,25.3,10,0.00,CLR,,0.00,WeatherDisplay:10.37,2013-05-13 20:25:00,
2013-05-13 13:30:00,95.3,30.1,29.80,SSE,151,27.0,27.0,10,0.00,CLR,,0.00,WeatherDisplay:10.37,2013-05-13 20:30:00,
2013-05-13 13:35:00,96.1,30.7,29.80,South,182,25.3,25.3,10,0.00,CLR,,0.00,WeatherDisplay:10.37,2013-05-13 20:35:00,
2013-05-13 13:40:00,95.5,30.3,29.81,SW,225,21.9,21.9,10,0.00,CLR,,0.00,WeatherDisplay:10.37,2013-05-13 20:40:00,
2013-05-13 13:45:00,94.7,29.7,29.80,WSW,249,12.7,12.7,10,0.00,CLR,,0.00,WeatherDisplay:10.37,2013-05-13 20:45:00,
2013-05-13 13:50:00,94.9,29.8,29.80,South,170,15.0,15.0,10,0.00,CLR,,0.00,WeatherDisplay:10.37,2013-05-13 20:50:00,
2013-05-13 13:56:00,95.9,30.6,29.81,SSW,205,12.7,12.7,10,0.00,CLR,,0.00,WeatherDisplay:10.37,2013-05-13 20:56:00,
2013-05-13 14:01:00,96.1,30.7,29.80,South,182,19.0,19.0,10,0.00,CLR,,0.00,WeatherDisplay:10.37,2013-05-13 21:01:00,
2013-05-13 14:06:00,96.1,30.7,29.79,SSE,160,23.0,23.0,10,0.00,CLR,,0.00,WeatherDisplay:10.37,2013-05-13 21:06:00,
2013-05-13 14:11:00,96.0,30.7,29.79,SE,136,23.0,23.0,10,0.00,CLR,,0.00,WeatherDisplay:10.37,2013-05-13 21:11:00,
2013-05-13 14:16:00,96.4,31.0,29.78,SSE,168,26.5,26.5,10,0.00,CLR,,0.00,WeatherDisplay:10.37,2013-05-13 21:16:00,
2013-05-13 14:21:00,96.1,30.7,29.79,SE,138,28.8,28.8,10,0.00,CLR,,0.00,WeatherDisplay:10.37,2013-05-13 21:21:00,
2013-05-13 14:26:00,96.0,30.7,29.79,ESE,122,21.9,21.9,10,0.00,CLR,,0.00,WeatherDisplay:10.37,2013-05-13 21:26:00,
2013-05-13 14:32:00,95.6,30.3,29.79,SSE,159,16.1,16.1,10,0.00,CLR,,0.00,WeatherDisplay:10.37,2013-05-13 21:32:00,
2013-05-13 14:37:00,95.0,29.9,29.79,SSW,192,8.0,8.0,10,0.00,CLR,,0.00,WeatherDisplay:10.37,2013-05-13 21:37:00,
2013-05-13 14:42:00,96.1,28.1,29.79,South,182,19.0,19.0,9,0.00,CLR,,0.00,WeatherDisplay:10.37,2013-05-13 21:42:00,
2013-05-13 14:47:00,95.7,32.8,29.78,SSE,148,23.0,23.0,11,0.00,CLR,,0.00,WeatherDisplay:10.37,2013-05-13 21:47:00,
2013-05-13 14:52:00,95.2,30.0,29.79,SSW,194,20.0,20.0,10,0.00,CLR,,0.00,WeatherDisplay:10.37,2013-05-13 21:52:00,
2013-05-13 14:57:00,95.0,29.9,29.78,SSE,154,17.3,17.3,10,0.00,CLR,,0.00,WeatherDisplay:10.37,2013-05-13 21:57:00,
2013-05-13 15:02:00,95.1,30.0,29.78,ESE,113,10.0,10.0,10,0.00,CLR,,0.00,WeatherDisplay:10.37,2013-05-13 22:02:00,
2013-05-13 15:07:00,95.7,30.4,29.78,South,190,28.0,28.0,10,0.00,CLR,,0.00,WeatherDisplay:10.37,2013-05-13 22:07:00,
2013-05-13 15:13:00,95.4,30.2,29.78,South,180,23.0,23.0,10,0.00,CLR,,0.00,WeatherDisplay:10.37,2013-05-13 22:13:00,
2013-05-13 15:18:00,96.0,30.7,29.78,SSE,157,23.0,23.0,10,0.00,CLR,,0.00,WeatherDisplay:10.37,2013-05-13 22:18:00,
2013-05-13 15:23:00,95.8,30.5,29.77,SSE,155,25.3,25.3,10,0.00,CLR,,0.00,WeatherDisplay:10.37,2013-05-13 22:23:00,
2013-05-13 15:28:00,96.0,30.7,29.78,South,183,18.4,18.4,10,0.00,CLR,,0.00,WeatherDisplay:10.37,2013-05-13 22:28:00,
2013-05-13 15:33:00,96.1,28.1,29.77,South,171,19.6,19.6,9,0.00,CLR,,0.00,WeatherDisplay:10.37,2013-05-13 22:33:00,
2013-05-13 15:38:00,94.9,29.8,29.77,SSW,192,11.5,11.5,10,0.00,CLR,,0.00,WeatherDisplay:10.37,2013-05-13 22:38:00,
2013-05-13 15:43:00,95.4,30.2,29.77,South,180,21.0,21.0,10,0.00,CLR,,0.00,WeatherDisplay:10.37,2013-05-13 22:43:00,
2013-05-13 15:48:00,96.3,28.3,29.77,ESE,116,21.9,21.9,9,0.00,CLR,,0.00,WeatherDisplay:10.37,2013-05-13 22:48:00,
2013-05-13 15:53:00,95.8,27.9,29.77,SE,140,26.5,26.5,9,0.00,CLR,,0.00,WeatherDisplay:10.37,2013-05-13 22:53:00,
2013-05-13 15:58:00,94.9,27.2,29.76,SE,146,16.1,16.1,9,0.00,CLR,,0.00,WeatherDisplay:10.37,2013-05-13 22:58:00,
2013-05-13 16:03:00,95.2,30.0,29.77,SSE,152,14.0,21.0,10,0.00,CLR,,0.00,WeatherDisplay:10.37,2013-05-13 23:03:00,
2013-05-13 16:08:00,95.1,27.4,29.76,South,169,7.0,26.0,9,0.00,CLR,,0.00,WeatherDisplay:10.37,2013-05-13 23:08:00,
2013-05-13 16:13:00,94.9,27.2,29.76,South,177,20.0,26.0,9,0.00,CLR,,0.00,WeatherDisplay:10.37,2013-05-13 23:13:00,
2013-05-13 16:19:00,94.9,27.2,29.76,SSE,154,26.5,26.5,9,0.00,CLR,,0.00,WeatherDisplay:10.37,2013-05-13 23:19:00,
2013-05-13 16:24:00,94.9,27.2,29.76,South,177,16.1,16.1,9,0.00,CLR,,0.00,WeatherDisplay:10.37,2013-05-13 23:24:00,
2013-05-13 16:29:00,95.0,27.3,29.76,South,184,24.2,24.2,9,0.00,CLR,,0.00,WeatherDisplay:10.37,2013-05-13 23:29:00,
2013-05-13 16:34:00,95.6,27.8,29.76,South,173,23.0,23.0,9,0.00,CLR,,0.00,WeatherDisplay:10.37,2013-05-13 23:34:00,
2013-05-13 16:39:00,95.1,27.4,29.75,South,184,16.1,16.1,9,0.00,CLR,,0.00,WeatherDisplay:10.37,2013-05-13 23:39:00,
2013-05-13 16:44:00,95.5,24.8,29.76,SSE,153,21.9,21.9,8,0.00,CLR,,0.00,WeatherDisplay:10.37,2013-05-13 23:44:00,
2013-05-13 16:49:00,95.7,25.0,29.76,SSE,165,21.9,21.9,8,0.00,CLR,,0.00,WeatherDisplay:10.37,2013-05-13 23:49:00,
2013-05-13 16:55:00,95.1,27.4,29.75,SSW,192,21.0,21.0,9,0.00,CLR,,0.00,WeatherDisplay:10.37,2013-05-13 23:55:00,
2013-05-13 17:00:00,95.1,24.5,29.75,South,171,26.0,26.0,8,0.00,CLR,,0.00,WeatherDisplay:10.37,2013-05-14 00:00:00,
2013-05-13 17:05:00,95.1,27.4,29.75,SE,142,31.1,31.1,9,0.00,CLR,,0.00,WeatherDisplay:10.37,2013-05-14 00:05:00,
2013-05-13 17:10:00,95.0,24.5,29.75,South,173,24.2,24.2,8,0.00,CLR,,0.00,WeatherDisplay:10.37,2013-05-14 00:10:00,
2013-05-13 17:15:00,94.9,29.8,29.75,South,189,22.0,22.0,10,0.00,CLR,,0.00,WeatherDisplay:10.37,2013-05-14 00:15:00,
2013-05-13 17:20:00,94.8,29.7,29.75,SSW,197,25.3,25.3,10,0.00,CLR,,0.00,WeatherDisplay:10.37,2013-05-14 00:20:00,
2013-05-13 17:25:00,94.9,29.8,29.75,SSW,192,18.4,18.4,10,0.00,CLR,,0.00,WeatherDisplay:10.37,2013-05-14 00:25:00,
2013-05-13 17:30:00,94.0,29.1,29.74,SSW,196,19.6,19.6,10,0.00,CLR,,0.00,WeatherDisplay:10.37,2013-05-14 00:30:00,
2013-05-13 17:35:00,94.0,31.5,29.74,South,186,21.9,21.9,11,0.00,CLR,,0.00,WeatherDisplay:10.37,2013-05-14 00:35:00,
2013-05-13 17:40:00,94.3,31.7,29.75,SSW,194,23.0,23.0,11,0.00,CLR,,0.00,WeatherDisplay:10.37,2013-05-14 00:40:00,
2013-05-13 17:45:00,93.7,31.3,29.75,SSW,213,23.0,23.0,11,0.00,CLR,,0.00,WeatherDisplay:10.37,2013-05-14 00:45:00,
2013-05-13 17:50:00,93.7,31.3,29.75,South,190,23.0,23.0,11,0.00,CLR,,0.00,WeatherDisplay:10.37,2013-05-14 00:50:00,
2013-05-13 17:55:00,93.3,31.0,29.74,South,185,26.5,26.5,11,0.00,CLR,,0.00,WeatherDisplay:10.37,2013-05-14 00:55:00,
2013-05-13 18:00:00,93.2,33.0,29.74,SSE,161,24.2,24.2,12,0.00,CLR,,0.00,WeatherDisplay:10.37,2013-05-14 01:00:00,
2013-05-13 18:05:00,93.3,31.0,29.74,SSW,193,16.1,16.1,11,0.00,CLR,,0.00,WeatherDisplay:10.37,2013-05-14 01:05:00,
2013-05-13 18:10:00,92.7,34.7,29.74,SSW,202,21.9,21.9,13,0.00,CLR,,0.00,WeatherDisplay:10.37,2013-05-14 01:10:00,
2013-05-13 18:16:00,93.0,32.9,29.74,South,184,24.0,24.0,12,0.00,CLR,,0.00,WeatherDisplay:10.37,2013-05-14 01:16:00,
2013-05-13 18:21:00,92.8,32.7,29.74,South,180,19.6,19.6,12,0.00,CLR,,0.00,WeatherDisplay:10.37,2013-05-14 01:21:00,
2013-05-13 18:26:00,92.9,32.8,29.74,South,183,17.3,17.3,12,0.00,CLR,,0.00,WeatherDisplay:10.37,2013-05-14 01:26:00,
2013-05-13 18:31:00,92.6,30.4,29.74,SSE,163,22.0,22.0,11,0.00,CLR,,0.00,WeatherDisplay:10.37,2013-05-14 01:31:00,
2013-05-13 18:36:00,92.2,34.3,29.74,South,190,19.6,19.6,13,0.00,CLR,,0.00,WeatherDisplay:10.37,2013-05-14 01:36:00,
2013-05-13 18:41:00,91.8,33.9,29.74,WSW,247,19.6,19.6,13,0.00,CLR,,0.00,WeatherDisplay:10.37,2013-05-14 01:41:00,
2013-05-13 18:46:00,91.5,33.7,29.74,WSW,241,20.7,20.7,13,0.00,CLR,,0.00,WeatherDisplay:10.37,2013-05-14 01:46:00,
2013-05-13 18:51:00,91.1,35.3,29.74,WSW,250,19.0,19.0,14,0.00,CLR,,0.00,WeatherDisplay:10.37,2013-05-14 01:51:00,
2013-05-13 18:56:00,90.9,35.1,29.74,WSW,250,23.0,23.0,14,0.00,CLR,,0.00,WeatherDisplay:10.37,2013-05-14 01:56:00,
2013-05-13 19:01:00,90.8,35.0,29.74,WSW,248,19.6,19.6,14,0.00,CLR,,0.00,WeatherDisplay:10.37,2013-05-14 02:01:00,
2013-05-13 19:06:00,90.5,34.8,29.74,SW,231,16.1,16.1,14,0.00,CLR,,0.00,WeatherDisplay:10.37,2013-05-14 02:06:00,
2013-05-13 19:11:00,90.4,34.7,29.75,SW,236,17.3,17.3,14,0.00,CLR,,0.00,WeatherDisplay:10.37,2013-05-14 02:11:00,
2013-05-13 19:16:00,89.9,36.1,29.75,WSW,252,19.6,19.6,15,0.00,CLR,,0.00,WeatherDisplay:10.37,2013-05-14 02:16:00,
2013-05-13 19:22:00,89.6,35.8,29.74,West,269,17.3,17.3,15,0.00,CLR,,0.00,WeatherDisplay:10.37,2013-05-14 02:22:00,
2013-05-13 19:27:00,89.1,37.1,29.75,WSW,242,16.1,16.1,16,0.00,CLR,,0.00,WeatherDisplay:10.37,2013-05-14 02:27:00,
2013-05-13 19:32:00,88.6,36.7,29.75,SW,227,15.0,15.0,16,0.00,CLR,,0.00,WeatherDisplay:10.37,2013-05-14 02:32:00,
2013-05-13 19:37:00,87.9,37.6,29.74,WSW,241,15.0,15.0,17,0.00,CLR,,0.00,WeatherDisplay:10.37,2013-05-14 02:37:00,
2013-05-13 19:42:00,87.5,38.8,29.75,WSW,245,14.0,14.0,18,0.00,CLR,,0.00,WeatherDisplay:10.37,2013-05-14 02:42:00,
2013-05-13 19:47:00,87.2,38.5,29.75,WSW,246,12.7,12.7,18,0.00,CLR,,0.00,WeatherDisplay:10.37,2013-05-14 02:47:00,
2013-05-13 19:53:00,86.4,39.3,29.75,SW,234,10.4,10.4,19,0.00,CLR,,0.00,WeatherDisplay:10.37,2013-05-14 02:53:00,
2013-05-13 19:58:00,85.9,38.8,29.75,SW,236,8.1,8.1,19,0.00,CLR,,0.00,WeatherDisplay:10.37,2013-05-14 02:58:00,
2013-05-13 20:03:00,84.9,38.0,29.75,SW,232,7.0,7.0,19,0.00,CLR,,0.00,WeatherDisplay:10.37,2013-05-14 03:03:00,
2013-05-13 20:08:00,84.3,38.9,29.75,WSW,238,6.9,6.9,20,0.00,CLR,,0.00,WeatherDisplay:10.37,2013-05-14 03:08:00,
2013-05-13 20:13:00,83.3,38.0,29.75,SSW,205,6.0,6.0,20,0.00,CLR,,0.00,WeatherDisplay:10.37,2013-05-14 03:13:00,
2013-05-13 20:18:00,82.7,38.8,29.75,SSW,209,7.0,7.0,21,0.00,CLR,,0.00,WeatherDisplay:10.37,2013-05-14 03:18:00,
2013-05-13 20:23:00,81.8,39.2,29.75,SW,215,8.1,8.1,22,0.00,CLR,,0.00,WeatherDisplay:10.37,2013-05-14 03:23:00,
2013-05-13 20:28:00,81.2,38.7,29.76,SSW,192,8.1,8.1,22,0.00,CLR,,0.00,WeatherDisplay:10.37,2013-05-14 03:28:00,
2013-05-13 20:33:00,81.1,37.5,29.76,SSW,192,7.0,7.0,21,0.00,CLR,,0.00,WeatherDisplay:10.37,2013-05-14 03:33:00,
2013-05-13 20:38:00,81.0,37.4,29.75,South,190,9.2,9.2,21,0.00,CLR,,0.00,WeatherDisplay:10.37,2013-05-14 03:38:00,
2013-05-13 20:43:00,80.9,37.3,29.75,South,179,9.2,9.2,21,0.00,CLR,,0.00,WeatherDisplay:10.37,2013-05-14 03:43:00,
2013-05-13 20:48:00,80.5,38.1,29.75,South,190,9.0,9.0,22,0.00,CLR,,0.00,WeatherDisplay:10.37,2013-05-14 03:48:00,
2013-05-13 20:53:00,80.1,38.9,29.75,South,184,9.2,9.2,23,0.00,CLR,,0.00,WeatherDisplay:10.37,2013-05-14 03:53:00,
2013-05-13 20:58:00,78.9,39.0,29.75,South,184,8.0,8.0,24,0.00,CLR,,0.00,WeatherDisplay:10.37,2013-05-14 03:58:00,
2013-05-13 21:01:00,78.6,39.8,29.76,South,180,9.2,9.2,25,0.00,CLR,,0.00,WeatherDisplay:10.37,2013-05-14 04:01:00,
2013-05-13 21:03:00,78.5,39.7,29.76,South,178,9.2,9.2,25,0.00,OVC,,0.00,WeatherDisplay:10.37,2013-05-14 04:03:00,
2013-05-13 21:08:00,78.4,40.7,29.76,South,175,11.5,11.5,26,0.00,OVC,,0.00,WeatherDisplay:10.37,2013-05-14 04:08:00,
2013-05-13 21:13:00,78.2,40.5,29.76,South,189,9.2,9.2,26,0.00,OVC,,0.00,WeatherDisplay:10.37,2013-05-14 04:13:00,
2013-05-13 21:18:00,77.9,40.2,29.76,South,189,9.2,9.2,26,0.00,OVC,,0.00,WeatherDisplay:10.37,2013-05-14 04:18:00,
2013-05-13 21:23:00,77.9,40.2,29.77,South,189,7.0,7.0,26,0.00,CLR,,0.00,WeatherDisplay:10.37,2013-05-14 04:23:00,
2013-05-13 21:28:00,77.5,39.9,29.77,South,189,5.8,5.8,26,0.00,OVC,,0.00,WeatherDisplay:10.37,2013-05-14 04:28:00,
2013-05-13 21:34:00,76.8,40.3,29.77,South,189,2.0,4.0,27,0.00,CLR,,0.00,WeatherDisplay:10.37,2013-05-14 04:34:00,
2013-05-13 21:39:00,76.4,39.9,29.77,West,263,4.0,4.0,27,0.00,OVC,,0.00,WeatherDisplay:10.37,2013-05-14 04:39:00,
2013-05-13 21:44:00,76.9,40.4,29.77,WSW,245,5.0,6.0,27,0.00,CLR,,0.00,WeatherDisplay:10.37,2013-05-14 04:44:00,
2013-05-13 21:49:00,76.9,39.4,29.77,WSW,240,5.8,5.8,26,0.00,OVC,,0.00,WeatherDisplay:10.37,2013-05-14 04:49:00,
2013-05-13 21:54:00,76.5,39.0,29.77,West,260,5.0,5.0,26,0.00,OVC,,0.00,WeatherDisplay:10.37,2013-05-14 04:54:00,
2013-05-13 21:59:00,76.3,38.9,29.77,West,260,5.0,5.0,26,0.00,CLR,,0.00,WeatherDisplay:10.37,2013-05-14 04:59:00,
2013-05-13 22:04:00,76.0,38.6,29.77,West,265,5.8,5.8,26,0.00,CLR,,0.00,WeatherDisplay:10.37,2013-05-14 05:04:00,
2013-05-13 22:09:00,76.0,38.6,29.77,WSW,251,6.9,6.9,26,0.00,CLR,,0.00,WeatherDisplay:10.37,2013-05-14 05:09:00,
2013-05-13 22:15:00,75.9,38.5,29.77,WSW,244,4.0,4.0,26,0.00,CLR,,0.00,WeatherDisplay:10.37,2013-05-14 05:15:00,
2013-05-13 22:20:00,75.6,38.3,29.77,WSW,244,3.5,3.5,26,0.00,CLR,,0.00,WeatherDisplay:10.37,2013-05-14 05:20:00,
2013-05-13 22:25:00,75.4,38.1,29.77,West,276,5.8,5.8,26,0.00,CLR,,0.00,WeatherDisplay:10.37,2013-05-14 05:25:00,
2013-05-13 22:30:00,75.9,38.5,29.77,SW,234,5.0,5.0,26,0.00,CLR,,0.00,WeatherDisplay:10.37,2013-05-14 05:30:00,
2013-05-13 22:35:00,75.7,38.4,29.77,West,262,5.0,5.0,26,0.00,CLR,,0.00,WeatherDisplay:10.37,2013-05-14 05:35:00,
2013-05-13 22:40:00,75.7,38.4,29.77,WSW,246,5.0,5.0,26,0.00,CLR,,0.00,WeatherDisplay:10.37,2013-05-14 05:40:00,
2013-05-13 22:45:00,75.5,38.2,29.77,SW,226,6.9,6.9,26,0.00,CLR,,0.00,WeatherDisplay:10.37,2013-05-14 05:45:00,
2013-05-13 22:51:00,74.5,38.3,29.77,SW,227,5.0,5.0,27,0.00,CLR,,0.00,WeatherDisplay:10.37,2013-05-14 05:51:00,
2013-05-13 22:56:00,74.2,38.1,29.76,SW,227,3.5,3.5,27,0.00,CLR,,0.00,WeatherDisplay:10.37,2013-05-14 05:56:00,
2013-05-13 23:01:00,74.1,38.0,29.76,West,259,5.8,5.8,27,0.00,CLR,,0.00,WeatherDisplay:10.37,2013-05-14 06:01:00,
2013-05-13 23:06:00,75.0,38.7,29.76,WSW,239,5.8,5.8,27,0.00,OVC,,0.00,WeatherDisplay:10.37,2013-05-14 06:06:00,
2013-05-13 23:11:00,75.4,38.1,29.76,WSW,254,5.8,5.8,26,0.00,OVC,,0.00,WeatherDisplay:10.37,2013-05-14 06:11:00,
2013-05-13 23:16:00,75.2,38.9,29.76,WSW,250,5.8,5.8,27,0.00,OVC,,0.00,WeatherDisplay:10.37,2013-05-14 06:16:00,
2013-05-13 23:21:00,75.6,38.3,29.76,SW,217,8.1,8.1,26,0.00,OVC,,0.00,WeatherDisplay:10.37,2013-05-14 06:21:00,
2013-05-13 23:26:00,75.4,38.1,29.76,SW,219,8.0,8.0,26,0.00,OVC,,0.00,WeatherDisplay:10.37,2013-05-14 06:26:00,
2013-05-13 23:32:00,75.1,37.9,29.76,SW,232,6.0,6.0,26,0.00,OVC,,0.00,WeatherDisplay:10.37,2013-05-14 06:32:00,
2013-05-13 23:37:00,75.1,38.8,29.76,SW,223,8.1,8.1,27,0.00,OVC,,0.00,WeatherDisplay:10.37,2013-05-14 06:37:00,
2013-05-13 23:42:00,75.1,37.9,29.76,SW,235,5.8,5.8,26,0.00,OVC,,0.00,WeatherDisplay:10.37,2013-05-14 06:42:00,
2013-05-13 23:47:00,75.3,38.0,29.76,WSW,245,6.9,6.9,26,0.00,OVC,,0.00,WeatherDisplay:10.37,2013-05-14 06:47:00,
2013-05-13 23:52:00,75.6,38.3,29.76,WSW,245,4.0,4.0,26,0.00,OVC,,0.00,WeatherDisplay:10.37,2013-05-14 06:52:00,
2013-05-13 23:58:00,75.5,38.2,29.76,West,264,5.0,5.0,26,0.00,OVC,,0.00,WeatherDisplay:10.37,2013-05-14 06:58:00,